Location: Newark
(16.3678°N, 77.8722°E)
Time: 00:11:13
(UTC+00:00)

Tiros 1 - Pass Details

Date: 09 December 2019
Orbit: 630 x 664 km, 48.4° (Epoch: 18 January)

Event Time Altitude Azimuth Distance (km) Brightness Sun altitude
Rises 08:57:50 0° 323° (NW) 2,905 10.4 38.4°
Reaches altitude 10° 09:00:10 10° 326° (NW) 1,997 9.7 38.1°
Maximum altitude 09:04:43 65° 47° (NE) 690 7.6 37.3°
Drops below altitude 10° 09:09:18 10° 130° (SE) 2,003 9.7 36.6°
Sets 09:11:38 0° 133° (SE) 2,914 10.5 36.2°
